CXA8161 ZSPD-ZSAM

Flight info

Callsign CXA8161
Flight time 1h 10m
Altitude 25600
Route NXD94D NXD W131 AKDIM A470 ENVEN ENVEN6W
Aircraft B789/H-SDE1E2E3FGHIJ2J3J4J5M1RWXY/LB1D1

Departure

Time 2026-05-07 08:18
Airport Shanghai Pudong International Airport (ZSPD)

Arrival

Time 2026-05-07 09:28
Airport Xiamen Gaoqi International Airport (ZSAM)
Time Latitude Longitude Altitude Speed Heading
2026-05-07 07:59 31.13391 121.80296 11 ft 0 kts 72°
2026-05-07 08:08 31.13386 121.80278 28 ft 2 kts 72°
2026-05-07 08:08 31.13381 121.80259 28 ft 2 kts 72°
2026-05-07 08:09 31.13376 121.80241 28 ft 2 kts 72°
2026-05-07 08:09 31.13371 121.80223 26 ft 2 kts 83°
2026-05-07 08:09 31.13375 121.80204 25 ft 2 kts 127°
2026-05-07 08:09 31.13387 121.80191 28 ft 2 kts 144°
2026-05-07 08:10 31.13400 121.80182 27 ft 1 kts 154°
2026-05-07 08:10 31.13403 121.80180 27 ft 0 kts 156°
2026-05-07 08:10 31.13402 121.80181 27 ft 0 kts 156°
2026-05-07 08:13 31.13390 121.80186 27 ft 5 kts 160°
2026-05-07 08:13 31.13344 121.80204 28 ft 8 kts 161°
2026-05-07 08:13 31.13287 121.80226 28 ft 9 kts 162°
2026-05-07 08:13 31.13218 121.80251 28 ft 11 kts 162°
2026-05-07 08:14 31.13141 121.80280 28 ft 12 kts 162°
2026-05-07 08:14 31.13054 121.80313 28 ft 14 kts 162°
2026-05-07 08:14 31.12959 121.80344 28 ft 14 kts 176°
2026-05-07 08:14 31.12905 121.80284 28 ft 11 kts 247°
2026-05-07 08:15 31.12881 121.80196 28 ft 11 kts 247°
2026-05-07 08:15 31.12829 121.80174 28 ft 8 kts 169°
2026-05-07 08:15 31.12788 121.80157 28 ft 5 kts 229°
2026-05-07 08:15 31.12774 121.80118 28 ft 6 kts 249°
2026-05-07 08:16 31.12759 121.80067 29 ft 7 kts 252°
2026-05-07 08:16 31.12746 121.80019 29 ft 3 kts 252°
2026-05-07 08:16 31.12744 121.80013 29 ft 0 kts 252°
2026-05-07 08:17 31.12735 121.79979 29 ft 10 kts 252°
2026-05-07 08:17 31.12728 121.79894 28 ft 9 kts 301°
2026-05-07 08:17 31.12777 121.79863 28 ft 9 kts 342°
2026-05-07 08:17 31.12920 121.79809 28 ft 51 kts 342°
2026-05-07 08:18 31.13531 121.79578 28 ft 132 kts 342°
2026-05-07 08:18 31.14596 121.79186 369 ft 172 kts 347°
2026-05-07 08:18 31.15742 121.78765 1399 ft 176 kts 342°
2026-05-07 08:18 31.16897 121.78235 2504 ft 183 kts 339°
2026-05-07 08:19 31.18230 121.77713 2981 ft 225 kts 342°
2026-05-07 08:19 31.19826 121.77103 2975 ft 251 kts 341°
2026-05-07 08:19 31.21488 121.76430 3004 ft 257 kts 340°
2026-05-07 08:19 31.23210 121.75723 3706 ft 256 kts 340°
2026-05-07 08:20 31.24877 121.75044 5275 ft 257 kts 339°
2026-05-07 08:20 31.26596 121.74346 6504 ft 265 kts 339°
2026-05-07 08:20 31.28352 121.73633 7714 ft 270 kts 338°
2026-05-07 08:20 31.30141 121.72905 8927 ft 274 kts 338°
2026-05-07 08:21 31.31905 121.72025 10034 ft 277 kts 321°
2026-05-07 08:21 31.33248 121.70431 11085 ft 277 kts 301°
2026-05-07 08:21 31.33986 121.68323 11855 ft 292 kts 278°
2026-05-07 08:21 31.33926 121.65858 12350 ft 317 kts 261°
2026-05-07 08:22 31.33506 121.63204 12752 ft 345 kts 258°
2026-05-07 08:22 31.32999 121.60401 13650 ft 353 kts 258°
2026-05-07 08:22 31.32519 121.57576 14666 ft 357 kts 259°
2026-05-07 08:22 31.32063 121.54698 15594 ft 362 kts 259°
2026-05-07 08:23 31.31600 121.51829 16493 ft 367 kts 259°
2026-05-07 08:23 31.31107 121.48879 17391 ft 372 kts 259°
2026-05-07 08:23 31.30609 121.45891 18244 ft 377 kts 260°
2026-05-07 08:23 31.30111 121.42876 19005 ft 380 kts 260°
2026-05-07 08:24 31.29611 121.39846 20012 ft 376 kts 260°
2026-05-07 08:24 31.28986 121.36898 21021 ft 373 kts 252°
2026-05-07 08:24 31.27926 121.34127 22013 ft 372 kts 243°
2026-05-07 08:24 31.26644 121.31888 22898 ft 372 kts 234°
2026-05-07 08:25 31.24798 121.29627 23820 ft 374 kts 224°
2026-05-07 08:25 31.22789 121.27685 24541 ft 374 kts 224°
2026-05-07 08:25 31.20804 121.25769 25240 ft 375 kts 224°
2026-05-07 08:25 31.18753 121.23799 25480 ft 386 kts 223°
2026-05-07 08:26 31.14602 121.19833 25478 ft 382 kts 224°
2026-05-07 08:26 31.12509 121.17821 25477 ft 398 kts 224°
2026-05-07 08:26 31.10333 121.15701 25498 ft 414 kts 227°
2026-05-07 08:27 31.08386 121.13167 25500 ft 425 kts 236°
2026-05-07 08:27 31.06796 121.10216 25513 ft 436 kts 245°
2026-05-07 08:27 31.05637 121.06912 25510 ft 443 kts 254°
2026-05-07 08:27 31.04787 121.03506 25499 ft 445 kts 255°
2026-05-07 08:28 31.03923 121.00033 25513 ft 446 kts 255°
2026-05-07 08:28 31.03066 120.96550 25499 ft 446 kts 255°
2026-05-07 08:28 31.02203 120.93058 25502 ft 452 kts 255°
2026-05-07 08:28 31.01318 120.89499 25501 ft 462 kts 255°
2026-05-07 08:29 31.00415 120.85876 25523 ft 468 kts 255°
2026-05-07 08:29 30.99506 120.82224 25503 ft 470 kts 255°
2026-05-07 08:29 30.98593 120.78557 25510 ft 471 kts 255°
2026-05-07 08:29 30.97680 120.74898 25524 ft 470 kts 255°
2026-05-07 08:30 30.96764 120.71234 25520 ft 471 kts 255°
2026-05-07 08:30 30.95848 120.67576 25509 ft 471 kts 255°
2026-05-07 08:30 30.94932 120.63921 25512 ft 470 kts 255°
2026-05-07 08:30 30.94011 120.60251 25510 ft 470 kts 255°
2026-05-07 08:31 30.93094 120.56600 25513 ft 469 kts 255°
2026-05-07 08:31 30.92180 120.52965 25511 ft 470 kts 255°
2026-05-07 08:31 30.91171 120.49337 25508 ft 470 kts 249°
2026-05-07 08:31 30.89729 120.45916 25509 ft 473 kts 242°
2026-05-07 08:32 30.87859 120.42750 25509 ft 476 kts 234°
2026-05-07 08:32 30.85598 120.39922 25509 ft 481 kts 226°
2026-05-07 08:32 30.82970 120.37481 25527 ft 485 kts 219°
2026-05-07 08:32 30.80214 120.35206 25525 ft 485 kts 219°
2026-05-07 08:33 30.77451 120.32929 25530 ft 488 kts 219°
2026-05-07 08:33 30.74679 120.30657 25527 ft 489 kts 219°
2026-05-07 08:33 30.71893 120.28373 25529 ft 489 kts 219°
2026-05-07 08:33 30.70016 120.26829 25529 ft 490 kts 219°
2026-05-07 08:34 30.67201 120.24515 25527 ft 490 kts 219°
2026-05-07 08:34 30.64442 120.22253 25528 ft 490 kts 219°
2026-05-07 08:34 30.61645 120.19963 25526 ft 491 kts 219°
2026-05-07 08:34 30.58851 120.17675 25530 ft 491 kts 219°
2026-05-07 08:35 30.56058 120.15388 25526 ft 491 kts 219°
2026-05-07 08:35 30.53266 120.13105 25525 ft 492 kts 219°
2026-05-07 08:35 30.50465 120.10817 25531 ft 493 kts 219°
2026-05-07 08:35 30.47623 120.08496 25528 ft 493 kts 219°
2026-05-07 08:36 30.44830 120.06217 25531 ft 493 kts 219°
2026-05-07 08:36 30.41949 120.04121 25528 ft 496 kts 212°
2026-05-07 08:36 30.38899 120.02132 25525 ft 496 kts 214°
2026-05-07 08:36 30.35925 120.00091 25528 ft 496 kts 214°
2026-05-07 08:37 30.32937 119.98072 25528 ft 497 kts 214°
2026-05-07 08:37 30.29930 119.96108 25529 ft 497 kts 212°
2026-05-07 08:37 30.26723 119.94538 25531 ft 504 kts 203°
2026-05-07 08:37 30.23304 119.93554 25533 ft 510 kts 194°
2026-05-07 08:38 30.19758 119.93116 25535 ft 513 kts 190°
2026-05-07 08:38 30.16196 119.92727 25536 ft 514 kts 190°
2026-05-07 08:38 30.12630 119.92370 25533 ft 514 kts 189°
2026-05-07 08:38 30.09068 119.92034 25533 ft 515 kts 189°
2026-05-07 08:39 30.05484 119.91680 25532 ft 515 kts 190°
2026-05-07 08:39 30.01917 119.91315 25532 ft 514 kts 190°
2026-05-07 08:39 29.98395 119.90960 25537 ft 515 kts 190°
2026-05-07 08:39 29.94827 119.90610 25534 ft 516 kts 189°
2026-05-07 08:40 29.91242 119.90257 25531 ft 516 kts 190°
2026-05-07 08:40 29.87662 119.89899 25530 ft 517 kts 190°
2026-05-07 08:40 29.84096 119.89543 25527 ft 515 kts 190°
2026-05-07 08:40 29.80514 119.89189 25531 ft 516 kts 190°
2026-05-07 08:41 29.76936 119.88835 25525 ft 517 kts 190°
2026-05-07 08:41 29.73344 119.88479 25525 ft 516 kts 190°
2026-05-07 08:41 29.69766 119.88124 25524 ft 516 kts 190°
2026-05-07 08:41 29.66182 119.87770 25521 ft 516 kts 190°
2026-05-07 08:42 29.62603 119.87416 25520 ft 517 kts 190°
2026-05-07 08:42 29.59031 119.87064 25516 ft 515 kts 190°
2026-05-07 08:42 29.55459 119.86711 25522 ft 516 kts 190°
2026-05-07 08:42 29.51917 119.86361 25510 ft 517 kts 190°
2026-05-07 08:43 29.48297 119.86005 25517 ft 515 kts 190°
2026-05-07 08:43 29.44713 119.85652 25509 ft 516 kts 190°
2026-05-07 08:43 29.41140 119.85301 25507 ft 515 kts 189°
2026-05-07 08:43 29.37566 119.84949 25512 ft 517 kts 189°
2026-05-07 08:44 29.34024 119.84601 25509 ft 517 kts 189°
2026-05-07 08:44 29.30439 119.84249 25497 ft 517 kts 189°
2026-05-07 08:44 29.26855 119.83897 25509 ft 517 kts 189°
2026-05-07 08:44 29.23280 119.83547 25506 ft 515 kts 189°
2026-05-07 08:45 29.19706 119.83197 25500 ft 516 kts 189°
2026-05-07 08:45 29.16123 119.82845 25500 ft 515 kts 189°
2026-05-07 08:45 29.12538 119.82495 25498 ft 516 kts 189°
2026-05-07 08:45 29.08968 119.82146 25495 ft 516 kts 189°
2026-05-07 08:46 29.05384 119.81796 25499 ft 515 kts 189°
2026-05-07 08:46 29.01805 119.81446 25495 ft 515 kts 189°
2026-05-07 08:46 28.98280 119.81101 25500 ft 516 kts 189°
2026-05-07 08:46 28.94705 119.80753 25499 ft 515 kts 189°
2026-05-07 08:47 28.91128 119.80405 25499 ft 515 kts 189°
2026-05-07 08:47 28.87560 119.80057 25503 ft 514 kts 189°
2026-05-07 08:47 28.83991 119.79710 25502 ft 515 kts 189°
2026-05-07 08:47 28.80412 119.79361 25492 ft 516 kts 189°
2026-05-07 08:48 28.76835 119.79013 25517 ft 517 kts 189°
2026-05-07 08:48 28.73258 119.78667 25518 ft 516 kts 189°
2026-05-07 08:48 28.69672 119.78319 25508 ft 517 kts 189°
2026-05-07 08:48 28.66088 119.77971 25516 ft 517 kts 189°
2026-05-07 08:49 28.62509 119.77622 25517 ft 516 kts 189°
2026-05-07 08:49 28.58924 119.77276 25507 ft 517 kts 189°
2026-05-07 08:49 28.55340 119.76931 25513 ft 517 kts 189°
2026-05-07 08:49 28.51753 119.76583 25508 ft 517 kts 189°
2026-05-07 08:50 28.48178 119.76237 25501 ft 517 kts 189°
2026-05-07 08:50 28.44584 119.75890 25501 ft 517 kts 189°
2026-05-07 08:50 28.41011 119.75546 25505 ft 516 kts 189°
2026-05-07 08:50 28.37426 119.75200 25503 ft 516 kts 189°
2026-05-07 08:51 28.33852 119.74855 25503 ft 516 kts 189°
2026-05-07 08:51 28.30270 119.74509 25500 ft 517 kts 189°
2026-05-07 08:51 28.26670 119.74163 25507 ft 517 kts 189°
2026-05-07 08:51 28.23086 119.73820 25508 ft 518 kts 189°
2026-05-07 08:52 28.19542 119.73479 25502 ft 518 kts 189°
2026-05-07 08:52 28.15951 119.73133 25505 ft 517 kts 189°
2026-05-07 08:52 28.12367 119.72789 25500 ft 517 kts 189°
2026-05-07 08:52 28.08769 119.72445 25506 ft 518 kts 189°
2026-05-07 08:53 28.05178 119.72100 25507 ft 517 kts 189°
2026-05-07 08:53 28.01587 119.71756 25505 ft 518 kts 188°
2026-05-07 08:53 27.98000 119.71412 25507 ft 518 kts 188°
2026-05-07 08:53 27.94419 119.71069 25505 ft 518 kts 188°
2026-05-07 08:54 27.90803 119.70723 25508 ft 518 kts 188°
2026-05-07 08:54 27.87212 119.70380 25507 ft 519 kts 188°
2026-05-07 08:54 27.83605 119.70036 25506 ft 519 kts 188°
2026-05-07 08:54 27.79998 119.69692 25511 ft 520 kts 188°
2026-05-07 08:55 27.76399 119.69350 25509 ft 519 kts 188°
2026-05-07 08:55 27.72841 119.69010 25509 ft 520 kts 188°
2026-05-07 08:55 27.69228 119.68666 25510 ft 520 kts 188°
2026-05-07 08:55 27.65619 119.68323 25505 ft 520 kts 188°
2026-05-07 08:56 27.62022 119.67940 25506 ft 519 kts 190°
2026-05-07 08:56 27.58457 119.67312 25506 ft 517 kts 193°
2026-05-07 08:56 27.54913 119.66616 25509 ft 518 kts 192°
2026-05-07 08:56 27.51337 119.66066 25507 ft 519 kts 190°
2026-05-07 08:57 27.47751 119.65581 25510 ft 519 kts 191°
2026-05-07 08:57 27.44177 119.65020 25509 ft 518 kts 192°
2026-05-07 08:57 27.40610 119.64408 25509 ft 517 kts 192°
2026-05-07 08:57 27.37050 119.63836 25503 ft 515 kts 191°
2026-05-07 08:58 27.33493 119.63302 25506 ft 519 kts 191°
2026-05-07 08:58 27.29915 119.62749 25498 ft 516 kts 192°
2026-05-07 08:58 27.26356 119.62174 25502 ft 517 kts 192°
2026-05-07 08:58 27.22792 119.61603 25504 ft 517 kts 191°
2026-05-07 08:59 27.19227 119.61050 25503 ft 518 kts 191°
2026-05-07 08:59 27.15669 119.60497 25498 ft 517 kts 191°
2026-05-07 08:59 27.12093 119.59931 25500 ft 517 kts 192°
2026-05-07 08:59 27.08576 119.59375 25504 ft 518 kts 191°
2026-05-07 09:00 27.04944 119.58807 25499 ft 518 kts 191°
2026-05-07 09:00 27.01422 119.58256 25497 ft 517 kts 191°
2026-05-07 09:00 26.97848 119.57696 25505 ft 518 kts 191°
2026-05-07 09:00 26.94280 119.57135 25503 ft 518 kts 191°
2026-05-07 09:01 26.90714 119.56578 25503 ft 517 kts 191°
2026-05-07 09:01 26.87146 119.56021 25501 ft 517 kts 191°
2026-05-07 09:01 26.83576 119.55461 25497 ft 517 kts 191°
2026-05-07 09:01 26.80007 119.54903 25499 ft 518 kts 191°
2026-05-07 09:02 26.76444 119.54348 25501 ft 518 kts 191°
2026-05-07 09:02 26.72874 119.53792 25500 ft 518 kts 191°
2026-05-07 09:02 26.69301 119.53234 25502 ft 518 kts 191°
2026-05-07 09:02 26.65751 119.52680 25502 ft 518 kts 191°
2026-05-07 09:03 26.62178 119.52124 25497 ft 515 kts 191°
2026-05-07 09:03 26.58614 119.51570 25496 ft 515 kts 191°
2026-05-07 09:03 26.55110 119.51024 25500 ft 518 kts 191°
2026-05-07 09:03 26.51536 119.50468 25500 ft 517 kts 191°
2026-05-07 09:04 26.47974 119.49915 25498 ft 517 kts 191°
2026-05-07 09:04 26.44411 119.49363 25497 ft 517 kts 191°
2026-05-07 09:04 26.40846 119.48809 25495 ft 516 kts 191°
2026-05-07 09:04 26.37283 119.48256 25494 ft 517 kts 191°
2026-05-07 09:05 26.33720 119.47704 25494 ft 517 kts 191°
2026-05-07 09:05 26.30163 119.47154 25491 ft 516 kts 191°
2026-05-07 09:05 26.26597 119.46602 25490 ft 517 kts 191°
2026-05-07 09:05 26.23035 119.46051 25492 ft 517 kts 191°
2026-05-07 09:06 26.19476 119.45500 25510 ft 516 kts 191°
2026-05-07 09:06 26.15915 119.44951 25500 ft 517 kts 191°
2026-05-07 09:06 26.12351 119.44400 25498 ft 516 kts 191°
2026-05-07 09:06 26.08799 119.43852 25500 ft 516 kts 191°
2026-05-07 09:07 26.05235 119.43302 25498 ft 516 kts 191°
2026-05-07 09:07 26.01667 119.42753 25503 ft 517 kts 191°
2026-05-07 09:07 25.98110 119.42205 25497 ft 516 kts 191°
2026-05-07 09:07 25.94550 119.41657 25501 ft 515 kts 191°
2026-05-07 09:08 25.91016 119.41113 25500 ft 516 kts 191°
2026-05-07 09:08 25.87433 119.40562 25501 ft 516 kts 191°
2026-05-07 09:08 25.83884 119.40016 25499 ft 516 kts 191°
2026-05-07 09:08 25.80326 119.39445 25492 ft 514 kts 193°
2026-05-07 09:09 25.76952 119.38388 25494 ft 511 kts 202°
2026-05-07 09:09 25.73745 119.36717 25502 ft 506 kts 212°
2026-05-07 09:09 25.70855 119.34505 25504 ft 503 kts 221°
2026-05-07 09:09 25.68346 119.31839 25514 ft 500 kts 229°
2026-05-07 09:10 25.65950 119.29036 25517 ft 501 kts 228°
2026-05-07 09:10 25.63601 119.26287 25482 ft 481 kts 228°
2026-05-07 09:10 25.61292 119.23561 25323 ft 488 kts 228°
2026-05-07 09:10 25.58953 119.20806 25041 ft 492 kts 228°
2026-05-07 09:11 25.56595 119.18048 24638 ft 491 kts 228°
2026-05-07 09:11 25.54239 119.15296 24133 ft 493 kts 228°
2026-05-07 09:11 25.51886 119.12536 23611 ft 492 kts 228°
2026-05-07 09:11 25.49531 119.09775 23021 ft 495 kts 228°
2026-05-07 09:12 25.47178 119.07024 22408 ft 485 kts 228°
2026-05-07 09:12 25.44901 119.04367 21791 ft 468 kts 228°
2026-05-07 09:12 25.42699 119.01795 21155 ft 454 kts 228°
2026-05-07 09:12 25.40562 118.99295 20555 ft 451 kts 228°
2026-05-07 09:13 25.38389 118.96756 19963 ft 457 kts 228°
2026-05-07 09:13 25.36209 118.94215 19394 ft 455 kts 228°
2026-05-07 09:13 25.34050 118.91697 18833 ft 444 kts 229°
2026-05-07 09:13 25.32006 118.89164 18273 ft 441 kts 229°
2026-05-07 09:14 25.29918 118.86672 17635 ft 442 kts 229°
2026-05-07 09:14 25.27836 118.84192 17006 ft 441 kts 229°
2026-05-07 09:14 25.25763 118.81672 16408 ft 442 kts 229°
2026-05-07 09:14 25.23699 118.79154 15803 ft 445 kts 229°
2026-05-07 09:15 25.21617 118.76642 15221 ft 443 kts 229°
2026-05-07 09:15 25.19557 118.74167 14640 ft 427 kts 229°
2026-05-07 09:15 25.17588 118.71793 14063 ft 412 kts 229°
2026-05-07 09:15 25.16300 118.70234 13675 ft 401 kts 229°
2026-05-07 09:16 25.14451 118.67999 13027 ft 388 kts 229°
2026-05-07 09:16 25.12644 118.65823 12399 ft 382 kts 229°
2026-05-07 09:16 25.10850 118.63662 11797 ft 382 kts 229°
2026-05-07 09:16 25.08970 118.61591 11244 ft 385 kts 219°
2026-05-07 09:17 25.06731 118.59930 10707 ft 390 kts 216°
2026-05-07 09:17 25.04515 118.58257 10181 ft 392 kts 216°
2026-05-07 09:17 25.02296 118.56593 9643 ft 379 kts 216°
2026-05-07 09:17 25.00206 118.55054 9036 ft 337 kts 216°
2026-05-07 09:18 24.98361 118.53695 8430 ft 304 kts 216°
2026-05-07 09:18 24.96623 118.52398 7893 ft 302 kts 216°
2026-05-07 09:18 24.94887 118.51104 7361 ft 298 kts 216°
2026-05-07 09:18 24.93175 118.49837 6850 ft 294 kts 216°
2026-05-07 09:19 24.91485 118.48588 6345 ft 286 kts 216°
2026-05-07 09:19 24.89872 118.47392 5810 ft 282 kts 216°
2026-05-07 09:19 24.88229 118.46172 5326 ft 283 kts 216°
2026-05-07 09:19 24.86620 118.44983 4911 ft 276 kts 215°
2026-05-07 09:20 24.85253 118.43969 4701 ft 272 kts 215°
2026-05-07 09:20 24.83687 118.42811 4440 ft 271 kts 215°
2026-05-07 09:20 24.82142 118.41667 4182 ft 269 kts 215°
2026-05-07 09:20 24.80591 118.40521 3981 ft 262 kts 215°
2026-05-07 09:21 24.79152 118.39460 3762 ft 242 kts 215°
2026-05-07 09:21 24.77783 118.38450 3516 ft 229 kts 216°
2026-05-07 09:21 24.76496 118.37495 3283 ft 223 kts 215°
2026-05-07 09:21 24.75216 118.36548 3037 ft 220 kts 215°
2026-05-07 09:22 24.73991 118.35644 2982 ft 201 kts 215°
2026-05-07 09:22 24.72847 118.34802 2970 ft 192 kts 215°
2026-05-07 09:22 24.71752 118.33992 2969 ft 191 kts 215°
2026-05-07 09:22 24.70657 118.33185 2979 ft 188 kts 214°
2026-05-07 09:23 24.69567 118.32383 2983 ft 194 kts 215°
2026-05-07 09:23 24.68456 118.31561 2971 ft 187 kts 215°
2026-05-07 09:23 24.67362 118.30750 2970 ft 190 kts 217°
2026-05-07 09:23 24.66490 118.29707 2970 ft 185 kts 236°
2026-05-07 09:24 24.65696 118.28579 2976 ft 187 kts 232°
2026-05-07 09:24 24.64922 118.27529 2958 ft 169 kts 233°
2026-05-07 09:24 24.64183 118.26493 2773 ft 172 kts 233°
2026-05-07 09:24 24.63453 118.25463 2563 ft 172 kts 233°
2026-05-07 09:25 24.62734 118.24452 2347 ft 162 kts 232°
2026-05-07 09:25 24.62057 118.23500 2132 ft 151 kts 232°
2026-05-07 09:25 24.61425 118.22609 1942 ft 144 kts 232°
2026-05-07 09:25 24.60805 118.21736 1757 ft 145 kts 231°
2026-05-07 09:26 24.60187 118.20863 1572 ft 144 kts 230°
2026-05-07 09:26 24.59565 118.19990 1386 ft 146 kts 230°
2026-05-07 09:26 24.58950 118.19128 1203 ft 141 kts 232°
2026-05-07 09:26 24.58341 118.18253 1001 ft 144 kts 232°
2026-05-07 09:27 24.57741 118.17399 756 ft 143 kts 231°
2026-05-07 09:27 24.57132 118.16531 627 ft 142 kts 230°
2026-05-07 09:27 24.55899 118.14843 294 ft 140 kts 230°
2026-05-07 09:28 24.55298 118.13997 109 ft 139 kts 229°
2026-05-07 09:28 24.54726 118.13195 47 ft 131 kts 231°
2026-05-07 09:28 24.54304 118.12608 49 ft 56 kts 231°
2026-05-07 09:28 24.54084 118.12306 50 ft 48 kts 231°
2026-05-07 09:29 24.53886 118.12160 49 ft 19 kts 203°
2026-05-07 09:29 24.53809 118.12165 50 ft 7 kts 144°
2026-05-07 09:29 24.53766 118.12200 50 ft 8 kts 143°
2026-05-07 09:29 24.53709 118.12254 50 ft 12 kts 123°
2026-05-07 09:30 24.53698 118.12306 50 ft 1 kts 67°
2026-05-07 09:30 24.53717 118.12335 50 ft 11 kts 53°
2026-05-07 09:30 24.53769 118.12409 49 ft 13 kts 53°
2026-05-07 09:30 24.53826 118.12488 49 ft 9 kts 53°
2026-05-07 09:31 24.53822 118.12536 50 ft 5 kts 125°
2026-05-07 09:31 24.53794 118.12564 50 ft 3 kts 143°
2026-05-07 09:31 24.53790 118.12568 48 ft 0 kts 143°